Location: Saluda
(35.2377°N, 82.3468°W)
Time: 05:37:57
(UTC+00:00)

Vanguard 2 Rocket - Pass Details

Date: 09 October 2022
Orbit: 555 x 3321 km, 32.9° (Epoch: 04 December)

Event Time Altitude Azimuth Distance (km) Brightness Sun altitude
Rises 22:46:43 0° 203° (SSW) 6,866 11.9 2.3°
Reaches altitude 10° 22:52:06 10° 193° (SSW) 6,081 11.4 1.2°
Maximum altitude 23:07:50 30° 141° (SE) 4,731 10.3 -2.0°
Drops below altitude 10° 23:22:17 10° 89° (E) 5,650 10.2 -4.9°
Enters shadow 23:24:18 - 85° (E) 5,933 10.3 -5.4°
Sets 23:26:55 0° 80° (E) 6,339 - -5.9°
